FW2068 Weather Reports


Display with metric or nautical units.
time (UTC)temp
F
wind
direction
speed
MPH
gust
MPH
rain 1hr
in
rain 24hr
in
rain mn
in
humidity
%
barometer
mb
20260906073538 78 153 4.0 4.0 0.00 0.00 0.00 88 1012.8
20260906073034 78 147 3.0 4.0 0.00 0.00 0.00 88 1012.5
20260906072528 78 138 2.0 2.0 0.00 0.00 0.00 88 1012.6
20260906072025 78 157 2.0 3.0 0.00 0.00 0.00 87 1012.7
20260906071521 78 133 3.0 4.0 0.00 0.00 0.00 88 1012.8
20260906071011 79 142 3.0 5.0 0.00 0.00 0.00 87 1012.7
20260906070506 79 161 5.0 5.0 0.00 0.00 0.00 87 1012.7
20260906070001 79 150 4.0 4.0 0.00 0.00 0.00 87 1012.7
20260906065455 79 144 3.0 4.0 0.00 0.00 0.00 87 1012.7
20260906064951 79 151 2.0 3.0 0.00 0.00 0.00 87 1012.8
20260906064447 79 151 2.0 2.0 0.00 0.00 0.00 87 1012.7
20260906063942 79 146 4.0 5.0 0.00 0.00 0.00 86 1012.7
20260906063437 79 150 3.0 3.0 0.00 0.00 0.00 86 1012.6
20260906062938 80 140 2.0 3.0 0.00 0.00 0.00 86 1012.3
20260906062433 80 162 3.0 4.0 0.00 0.00 0.00 86 1012.3
20260906061927 79 157 2.0 3.0 0.00 0.00 0.00 86 1012.6
20260906061423 79 163 2.0 5.0 0.00 0.00 0.00 86 1012.6
20260906060917 80 158 3.0 5.0 0.00 0.00 0.00 86 1012.8
20260906060415 80 169 4.0 4.0 0.00 0.00 0.00 85 1012.8
20260906055911 80 166 2.0 4.0 0.00 0.00 0.00 85 1012.9
20260906055407 80 146 2.0 4.0 0.00 0.00 0.00 85 1013.0
20260906054902 80 133 3.0 5.0 0.00 0.00 0.00 85 1013.2
20260906054356 80 149 2.0 4.0 0.00 0.00 0.00 85 1012.9
20260906053853 80 157 3.0 4.0 0.00 0.00 0.00 85 1012.9
20260906053348 80 141 3.0 4.0 0.00 0.00 0.00 84 1012.7
20260906052843 80 152 2.0 2.0 0.00 0.00 0.00 84 1012.8
20260906052340 80 135 3.0 5.0 0.00 0.00 0.00 84 1012.8
20260906051837 80 156 4.0 5.0 0.00 0.00 0.00 84 1012.8
20260906051336 80 142 3.0 5.0 0.00 0.00 0.00 84 1012.8
20260906050832 80 155 4.0 6.0 0.00 0.00 0.00 84 1012.8
20260906050327 80 144 4.0 4.0 0.00 0.00 0.00 84 1012.9
20260906045825 80 151 3.0 5.0 0.00 0.00 0.00 84 1012.7
20260906045320 80 152 4.0 5.0 0.00 0.00 0.00 84 1012.7
20260906044817 81 151 4.0 5.0 0.00 0.00 0.00 83 1012.7
20260906044311 81 151 4.0 6.0 0.00 0.00 0.00 83 1012.7
20260906043807 81 147 4.0 7.0 0.00 0.00 0.00 83 1012.6
20260906043303 81 132 5.0 7.0 0.00 0.00 0.00 82 1012.7
20260906042802 81 156 3.0 5.0 0.00 0.00 0.00 83 1012.6
20260906042301 81 148 4.0 4.0 0.00 0.00 0.00 82 1012.7
20260906041757 82 184 3.0 4.0 0.00 0.00 0.00 81 1012.6
20260906041252 82 196 2.0 4.0 0.00 0.00 0.00 81 1012.5
20260906040748 82 198 2.0 3.0 0.00 0.00 0.00 81 1012.5
20260906040242 82 167 2.0 3.0 0.00 0.00 0.00 81 1012.6
20260906035738 82 173 0.0 2.0 0.00 0.00 0.00 81 1012.7
20260906035234 82 159 2.0 5.0 0.00 0.00 0.00 80 1012.9
20260906034733 82 149 3.0 6.0 0.00 0.00 0.00 80 1013.0
20260906034223 82 148 5.0 6.0 0.00 0.00 0.00 80 1012.8
20260906033718 82 151 5.0 9.0 0.00 0.00 0.00 79 1012.7
20260906033212 82 137 2.0 5.0 0.00 0.00 0.00 79 1012.8
20260906032710 82 146 2.0 4.0 0.00 0.00 0.00 79 1012.8
20260906032210 83 142 4.0 4.0 0.00 0.00 0.00 78 1012.8
20260906031705 83 147 2.0 4.0 0.00 0.00 0.00 78 1012.7
20260906031200 83 147 4.0 6.0 0.00 0.00 0.00 78 1012.6
20260906030700 83 144 5.0 6.0 0.00 0.00 0.00 78 1012.6
20260906030154 83 127 3.0 5.0 0.00 0.00 0.00 77 1012.7
20260906025653 83 163 5.0 6.0 0.00 0.00 0.00 77 1012.5
20260906025148 83 155 3.0 5.0 0.00 0.00 0.00 77 1012.5
20260906024642 83 171 4.0 6.0 0.00 0.00 0.00 76 1012.5
20260906024137 84 154 4.0 7.0 0.00 0.00 0.00 76 1012.3
20260906023633 84 155 4.0 6.0 0.00 0.00 0.00 76 1012.2
20260906023132 84 148 6.0 7.0 0.00 0.00 0.00 75 1012.3
20260906022627 84 139 8.0 10.0 0.00 0.00 0.00 75 1012.3
20260906022124 84 148 8.0 11.0 0.00 0.00 0.00 75 1012.2
20260906021619 84 147 6.0 9.0 0.00 0.00 0.00 74 1012.3
20260906021118 84 152 7.0 9.0 0.00 0.00 0.00 73 1012.2
20260906020617 85 150 6.0 8.0 0.00 0.00 0.00 73 1012.1
20260906020112 85 155 6.0 11.0 0.00 0.00 0.00 72 1012.0
20260906015612 85 122 5.0 12.0 0.00 0.00 0.00 72 1012.1
20260906015111 85 151 6.0 9.0 0.00 0.00 0.00 71 1011.9
20260906014605 85 154 8.0 9.0 0.00 0.00 0.00 71 1011.7
20260906014101 85 140 8.0 11.0 0.00 0.00 0.00 70 1011.8
20260906013557 85 149 4.0 9.0 0.00 0.00 0.00 70 1011.6
20260906013053 86 131 6.0 11.0 0.00 0.00 0.00 70 1011.6
20260906012547 86 138 7.0 11.0 0.00 0.00 0.00 69 1011.5
20260906012046 86 108 6.0 12.0 0.00 0.00 0.00 69 1011.5
20260906011543 86 123 6.0 10.0 0.00 0.00 0.00 68 1011.3
20260906011042 86 113 3.0 8.0 0.00 0.00 0.00 68 1011.3
20260906010538 86 143 8.0 11.0 0.00 0.00 0.00 67 1011.3
20260906010034 86 156 7.0 11.0 0.00 0.00 0.00 67 1011.1
20260906005533 86 112 5.0 13.0 0.00 0.00 0.00 67 1011.4
20260906005032 87 137 7.0 15.0 0.00 0.00 0.00 67 1011.3
20260906004532 87 151 8.0 13.0 0.00 0.00 0.00 66 1011.3
20260906004027 87 147 13.0 14.0 0.00 0.00 0.00 65 1011.5
20260906003522 87 149 10.0 14.0 0.00 0.00 0.00 65 1011.3
20260906003018 88 158 14.0 19.0 0.00 0.00 0.00 64 1011.5
20260906002513 88 147 10.0 19.0 0.00 0.00 0.00 63 1011.5
20260906002008 88 150 16.0 16.0 0.00 0.00 0.00 62 1011.5
20260906001503 88 133 13.0 19.0 0.00 0.00 0.00 61 1011.4
20260906000952 89 130 5.0 17.0 0.00 0.00 0.00 60 1011.3
20260906000448 89 143 14.0 22.0 0.00 0.00 0.00 59 1011.2
20260905235948 90 154 10.0 18.0 0.00 0.00 0.00 58 1011.3
20260905235442 92 148 11.0 17.0 0.00 0.00 0.00 55 1011.2
20260905234937 93 139 12.0 17.0 0.00 0.00 0.00 52 1011.1
20260905234433 94 123 4.0 11.0 0.00 0.00 0.00 51 1011.0
20260905233932 95 137 10.0 11.0 0.00 0.00 0.00 50 1011.0
20260905233427 95 127 6.0 12.0 0.00 0.00 0.00 50 1010.9
20260905232926 95 139 4.0 11.0 0.00 0.00 0.00 50 1010.9
20260905232423 96 99 4.0 14.0 0.00 0.00 0.00 49 1010.7
20260905231918 95 126 4.0 11.0 0.00 0.00 0.00 49 1010.8
20260905231414 97 139 9.0 10.0 0.00 0.00 0.00 49 1010.8
20260905230905 96 137 4.0 15.0 0.00 0.00 0.00 49 1010.7
20260905230402 97 148 9.0 13.0 0.00 0.00 0.00 48 1010.6
20260905225855 97 130 9.0 13.0 0.00 0.00 0.00 48 1010.8
20260905225351 98 152 6.0 12.0 0.00 0.00 0.00 49 1010.5
20260905224845 99 154 6.0 8.0 0.00 0.00 0.00 43 1010.6
20260905224341 99 132 3.0 5.0 0.00 0.00 0.00 43 1010.4
20260905223836 99 132 6.0 10.0 0.00 0.00 0.00 42 1010.3
20260905223334 99 123 2.0 8.0 0.00 0.00 0.00 43 1010.4
20260905222834 99 166 3.0 5.0 0.00 0.00 0.00 43 1010.6
20260905222332 98 169 2.0 4.0 0.00 0.00 0.00 45 1010.5
20260905221829 98 158 7.0 8.0 0.00 0.00 0.00 44 1010.3
20260905221325 100 264 2.0 4.0 0.00 0.00 0.00 42 1010.4
20260905220821 101 257 0.0 2.0 0.00 0.00 0.00 41 1010.3
20260905220317 101 286 3.0 4.0 0.00 0.00 0.00 42 1010.5
20260905215816 100 231 1.0 4.0 0.00 0.00 0.00 42 1010.7
20260905215312 100 188 2.0 4.0 0.00 0.00 0.00 42 1010.5
20260905214808 97 184 2.0 4.0 0.00 0.00 0.00 45 1010.6
20260905214303 97 178 0.0 3.0 0.00 0.00 0.00 46 1010.8
20260905213758 98 197 2.0 4.0 0.00 0.00 0.00 44 1011.0
20260905213255 98 167 2.0 5.0 0.00 0.00 0.00 46 1010.7
20260905212749 98 196 1.0 8.0 0.00 0.00 0.00 45 1010.7
20260905212244 97 155 2.0 3.0 0.00 0.00 0.00 46 1010.7
20260905211743 98 279 2.0 3.0 0.00 0.00 0.00 45 1010.9
20260905211239 99 133 2.0 2.0 0.00 0.00 0.00 44 1011.0
20260905210735 98 9 0.0 2.0 0.00 0.00 0.00 44 1011.4
20260905210234 98 168 2.0 2.0 0.00 0.00 0.00 45 1011.2
20260905205733 97 297 2.0 4.0 0.00 0.00 0.00 45 1011.2
20260905205228 96 222 0.0 4.0 0.00 0.00 0.00 46 1011.0
20260905204728 97 290 3.0 6.0 0.00 0.00 0.00 46 1011.4
20260905204223 99 339 0.0 2.0 0.00 0.00 0.00 44 1011.2
20260905203723 98 233 2.0 5.0 0.00 0.00 0.00 45 1011.3
20260905203219 101 277 1.0 2.0 0.00 0.00 0.00 45 1011.3
20260905202714 101 285 3.0 4.0 0.00 0.00 0.00 44 1011.6
20260905202210 100 276 2.0 3.0 0.00 0.00 0.00 44 1011.8
20260905201705 99 156 2.0 2.0 0.00 0.00 0.00 45 1011.7
20260905201204 96 249 1.0 4.0 0.00 0.00 0.00 47 1011.7
20260905200659 96 282 2.0 3.0 0.00 0.00 0.00 47 1011.7
20260905200155 97 291 1.0 2.0 0.00 0.00 0.00 47 1011.9
20260905195653 97 116 2.0 5.0 0.00 0.00 0.00 47 1011.9
20260905195148 96 320 0.0 2.0 0.00 0.00 0.00 46 1011.7
20260905194644 96 308 1.0 6.0 0.00 0.00 0.00 47 1011.9
20260905194143 96 315 2.0 6.0 0.00 0.00 0.00 46 1012.1
20260905193638 96 291 3.0 4.0 0.00 0.00 0.00 47 1012.1
20260905193133 97 101 2.0 3.0 0.00 0.00 0.00 46 1012.1
20260905192628 96 272 2.0 3.0 0.00 0.00 0.00 46 1012.4
20260905192125 97 278 8.0 9.0 0.00 0.00 0.00 46 1012.3
20260905191624 96 223 2.0 5.0 0.00 0.00 0.00 46 1012.3
20260905191122 97 197 3.0 8.0 0.00 0.00 0.00 46 1012.5
20260905190621 97 177 2.0 4.0 0.00 0.00 0.00 49 1012.5
20260905190120 97 188 5.0 7.0 0.00 0.00 0.00 47 1012.8
20260905185619 98 80 2.0 7.0 0.00 0.00 0.00 46 1012.7
20260905185114 98 120 3.0 4.0 0.00 0.00 0.00 46 1013.1
20260905184609 97 139 3.0 6.0 0.00 0.00 0.00 48 1013.1
20260905184108 96 179 5.0 5.0 0.00 0.00 0.00 50 1013.0
20260905183607 96 249 3.0 5.0 0.00 0.00 0.00 49 1013.2
20260905183102 97 189 3.0 7.0 0.00 0.00 0.00 48 1013.5
20260905182602 99 122 0.0 2.0 0.00 0.00 0.00 47 1013.4
20260905182056 96 314 0.0 3.0 0.00 0.00 0.00 51 1013.5
20260905181556 93 164 0.0 4.0 0.00 0.00 0.00 53 1013.7
20260905181055 94 164 6.0 6.0 0.00 0.00 0.00 52 1013.4
20260905180550 96 330 3.0 3.0 0.00 0.00 0.00 49 1013.7
20260905180046 95 156 8.0 9.0 0.00 0.00 0.00 52 1013.7
20260905175545 96 198 3.0 6.0 0.00 0.00 0.00 50 1014.0
20260905175041 95 155 5.0 8.0 0.00 0.00 0.00 52 1014.1
20260905174536 94 185 7.0 8.0 0.00 0.00 0.00 51 1013.9
20260905174031 95 149 2.0 8.0 0.00 0.00 0.00 51 1014.2
20260905173529 94 172 1.0 4.0 0.00 0.00 0.00 50 1014.0
20260905173029 95 189 4.0 7.0 0.00 0.00 0.00 50 1014.4
20260905172527 94 348 2.0 4.0 0.00 0.00 0.00 52 1014.3
20260905172023 94 159 4.0 9.0 0.00 0.00 0.00 55 1014.4
20260905171519 95 202 4.0 5.0 0.00 0.00 0.00 51 1014.6
20260905171015 96 211 2.0 5.0 0.00 0.00 0.00 51 1014.6
20260905170511 94 124 0.0 2.0 0.00 0.00 0.00 52 1014.6
20260905170006 95 143 0.0 1.0 0.00 0.00 0.00 52 1014.4
20260905165501 95 151 2.0 6.0 0.00 0.00 0.00 52 1014.6
20260905164955 94 142 2.0 4.0 0.00 0.00 0.00 52 1014.6
20260905164450 94 260 0.0 3.0 0.00 0.00 0.00 52 1014.8
20260905163945 93 255 0.0 5.0 0.00 0.00 0.00 54 1014.9
20260905163441 93 94 2.0 4.0 0.00 0.00 0.00 54 1015.0
20260905162937 91 142 0.0 4.0 0.00 0.00 0.00 57 1014.9
20260905162431 90 269 3.0 5.0 0.00 0.00 0.00 58 1014.8
20260905161927 91 232 2.0 6.0 0.00 0.00 0.00 56 1014.8
20260905161426 92 243 2.0 2.0 0.00 0.00 0.00 54 1014.9
20260905160924 90 272 4.0 4.0 0.00 0.00 0.00 55 1014.6
20260905160418 92 303 4.0 4.0 0.00 0.00 0.00 55 1014.8
20260905155912 92 48 0.0 1.0 0.00 0.00 0.00 56 1015.0
20260905155407 91 180 3.0 6.0 0.00 0.00 0.00 58 1014.8
20260905154905 90 182 3.0 5.0 0.00 0.00 0.00 61 1014.8
20260905154401 89 282 1.0 2.0 0.00 0.00 0.00 61 1014.8
20260905153856 90 279 3.0 6.0 0.00 0.00 0.00 62 1014.8
20260905153353 90 242 0.0 0.0 0.00 0.00 0.00 63 1014.9
20260905152852 89 258 0.0 5.0 0.00 0.00 0.00 63 1014.8
20260905152352 91 205 2.0 2.0 0.00 0.00 0.00 61 1014.8
20260905151847 89 225 3.0 4.0 0.00 0.00 0.00 63 1014.9
20260905151342 88 280 5.0 6.0 0.00 0.00 0.00 64 1014.8
20260905150837 87 246 0.0 5.0 0.00 0.00 0.00 65 1014.8
20260905150331 88 275 3.0 4.0 0.00 0.00 0.00 67 1014.5
20260905145828 87 176 2.0 5.0 0.00 0.00 0.00 67 1014.6
20260905145323 86 228 3.0 4.0 0.00 0.00 0.00 67 1014.6
20260905144822 87 199 4.0 5.0 0.00 0.00 0.00 66 1014.5
20260905144318 87 283 5.0 6.0 0.00 0.00 0.00 67 1014.7
20260905143816 87 189 3.0 4.0 0.00 0.00 0.00 67 1014.7
20260905143311 86 246 2.0 4.0 0.00 0.00 0.00 69 1014.5
20260905142810 86 205 2.0 5.0 0.00 0.00 0.00 68 1014.5
20260905142306 85 223 1.0 4.0 0.00 0.00 0.00 69 1014.5
20260905141759 84 266 2.0 6.0 0.00 0.00 0.00 70 1014.4
20260905141255 85 263 2.0 3.0 0.00 0.00 0.00 70 1014.7
20260905140750 84 235 2.0 3.0 0.00 0.00 0.00 71 1014.6
20260905140245 84 224 2.0 3.0 0.00 0.00 0.00 71 1014.5
20260905135744 85 170 0.0 2.0 0.00 0.00 0.00 71 1014.6
20260905135240 85 166 2.0 4.0 0.00 0.00 0.00 70 1014.7
20260905134739 85 142 2.0 2.0 0.00 0.00 0.00 70 1014.5
20260905134238 84 117 0.0 2.0 0.00 0.00 0.00 70 1014.6
20260905133733 83 147 0.0 3.0 0.00 0.00 0.00 72 1014.6
20260905133228 83 104 0.0 3.0 0.00 0.00 0.00 73 1014.6
20260905132727 82 151 4.0 4.0 0.00 0.00 0.00 73 1014.4
20260905132223 82 149 3.0 4.0 0.00 0.00 0.00 73 1014.4
20260905131718 82 92 1.0 3.0 0.00 0.00 0.00 73 1014.1
20260905131214 81 104 1.0 4.0 0.00 0.00 0.00 75 1014.1
20260905130714 80 116 3.0 4.0 0.00 0.00 0.00 77 1013.9
20260905130213 79 153 3.0 4.0 0.00 0.00 0.00 78 1013.7
20260905125708 79 148 3.0 4.0 0.00 0.00 0.00 79 1013.9
20260905125203 78 141 2.0 4.0 0.00 0.00 0.00 81 1013.7
20260905124659 78 141 0.0 2.0 0.00 0.00 0.00 80 1014.2
20260905124155 78 86 2.0 3.0 0.00 0.00 0.00 80 1014.2
20260905123650 78 83 3.0 3.0 0.00 0.00 0.00 79 1014.1
20260905123148 78 107 2.0 3.0 0.00 0.00 0.00 79 1013.9
20260905122647 78 107 1.0 2.0 0.00 0.00 0.00 79 1014.1
20260905122142 78 106 0.0 2.0 0.00 0.00 0.00 79 1014.1
20260905121636 77 113 0.0 1.0 0.00 0.00 0.00 80 1014.2
20260905121132 78 98 0.0 0.0 0.00 0.00 0.00 79 1014.0
20260905120631 78 69 1.0 1.0 0.00 0.00 0.00 79 1013.9
20260905120126 77 98 0.0 1.0 0.00 0.00 0.00 80 1013.7
20260905115625 77 104 0.0 0.0 0.00 0.00 0.00 80 1013.9
20260905115120 77 157 1.0 2.0 0.00 0.00 0.00 80 1013.6
20260905114620 77 144 1.0 2.0 0.00 0.00 0.00 80 1013.9
20260905114119 77 135 2.0 2.0 0.00 0.00 0.00 80 1013.5
20260905113614 78 156 2.0 2.0 0.00 0.00 0.00 78 1013.7
20260905113109 78 115 0.0 2.0 0.00 0.00 0.00 79 1013.9
20260905112603 78 160 0.0 2.0 0.00 0.00 0.00 78 1013.7
20260905112100 78 126 0.0 1.0 0.00 0.00 0.00 78 1013.9
20260905111554 78 107 1.0 2.0 0.00 0.00 0.00 78 1014.0
20260905111053 78 158 0.0 2.0 0.00 0.00 0.00 79 1013.6
20260905110552 78 144 1.0 2.0 0.00 0.00 0.00 78 1013.7
20260905110048 78 135 0.0 2.0 0.00 0.00 0.00 78 1013.7
20260905105542 78 142 0.0 1.0 0.00 0.00 0.00 78 1013.5
20260905105041 78 126 1.0 2.0 0.00 0.00 0.00 78 1013.6
20260905104537 79 116 0.0 1.0 0.00 0.00 0.00 77 1013.5
20260905104037 79 213 1.0 2.0 0.00 0.00 0.00 77 1013.4
20260905103532 79 358 0.0 0.0 0.00 0.00 0.00 76 1013.5
20260905103028 79 137 0.0 1.0 0.00 0.00 0.00 76 1013.4
20260905102524 79 164 0.0 2.0 0.00 0.00 0.00 76 1013.5
20260905102020 79 185 0.0 2.0 0.00 0.00 0.00 76 1013.5
20260905101518 79 160 1.0 2.0 0.00 0.00 0.00 75 1013.4
20260905101017 79 189 0.0 1.0 0.00 0.00 0.00 75 1013.6
20260905100514 80 231 1.0 2.0 0.00 0.00 0.00 75 1013.6
20260905100013 80 180 0.0 2.0 0.00 0.00 0.00 75 1013.4
20260905095508 80 147 0.0 2.0 0.00 0.00 0.00 75 1013.4
20260905095003 79 172 1.0 2.0 0.00 0.00 0.00 75 1013.4
20260905094458 79 160 0.0 1.0 0.00 0.00 0.00 76 1013.4
20260905093956 79 142 0.0 0.0 0.00 0.00 0.00 76 1013.3
20260905093452 79 129 0.0 0.0 0.00 0.00 0.00 75 1013.2
20260905092948 80 145 1.0 1.0 0.00 0.00 0.00 75 1013.5
20260905092443 80 145 1.0 2.0 0.00 0.00 0.00 75 1013.2
20260905091938 80 154 1.0 2.0 0.00 0.00 0.00 75 1013.2
20260905091432 80 142 0.0 2.0 0.00 0.00 0.00 74 1013.2
20260905090932 80 153 2.0 2.0 0.00 0.00 0.00 74 1013.1
20260905090427 80 150 1.0 2.0 0.00 0.00 0.00 74 1013.1
20260905085926 80 161 2.0 2.0 0.00 0.00 0.00 74 1013.1
20260905085426 80 158 2.0 2.0 0.00 0.00 0.00 73 1013.0
20260905084922 81 131 0.0 3.0 0.00 0.00 0.00 73 1013.2
20260905084421 81 126 0.0 3.0 0.00 0.00 0.00 73 1012.8
20260905083916 81 132 2.0 4.0 0.00 0.00 0.00 73 1013.0
20260905083412 81 134 2.0 3.0 0.00 0.00 0.00 73 1013.0
20260905082907 81 158 2.0 3.0 0.00 0.00 0.00 73 1013.0
20260905082403 81 162 2.0 2.0 0.00 0.00 0.00 73 1012.9
20260905081859 82 168 2.0 4.0 0.00 0.00 0.00 72 1012.9
20260905081359 81 171 2.0 2.0 0.00 0.00 0.00 73 1012.8
20260905080857 82 161 2.0 3.0 0.00 0.00 0.00 72 1012.8
20260905080352 82 182 2.0 3.0 0.00 0.00 0.00 71 1012.9
20260905075851 82 208 1.0 1.0 0.00 0.00 0.00 71 1012.9
20260905075351 82 217 0.0 2.0 0.00 0.00 0.00 71 1012.9
20260905074850 82 175 0.0 2.0 0.00 0.00 0.00 70 1012.9
20260905074346 82 211 2.0 4.0 0.00 0.00 0.00 71 1012.9